, LA

(GMT )
Salt Point

Weather History for KP92 - January, 2013

Change the Weather History Date:

Tuesday, January 22, 2013

  Actual Average Record
Temperature  
Mean Temperature 66 °F -  
Max Temperature 82 °F 58 °F 82 °F (2013)
Min Temperature 51 °F 43 °F 30 °F (2011)
Cooling Degree Days 2    
Growing Degree Days 16 (Base 50)    
Moisture  
Dew Point 47 °F    
Average Humidity 60    
Maximum Humidity 77    
Minimum Humidity 29    
Precipitation  
Precipitation 0.00 in - - ()
Sea Level Pressure  
Sea Level Pressure 30.29 in    
Wind  
Wind Speed 2 mph (SE)    
Max Wind Speed 7 mph    
Max Gust Speed -    
Averages and records for this station are not official NWS values.
T = Trace of Precipitation, MM = Missing Value Source: NWS Daily Summary

Daily Weather History Graph

Daily Weather History Graph

Search for Another Location

Airport or City:

Trip Planner

Search our weather history database for the weather conditions in past years. The results will help you decide how hot, cold, wet, or windy it might be!

Date:

Astronomy

Jan. 22, 2013 Rise Set
Actual Time 6:59 AM CST 5:34 PM CST
Civil Twilight 6:33 AM CST 6:00 PM CST
Nautical Twilight 6:04 AM CST 6:29 PM CST
Astronomical Twilight 5:36 AM CST 6:57 PM CST
Moon 2:01 PM CST (1/22) 3:18 AM CST (1/22)
Length of Visible Light 11h 26m
Length of Day
10h 35m
Waxing Gibbous, 83% of the Moon is Illuminated
Jan 22
Waxing Gibbous
Jan 26
Full
Feb 3
Last Quarter
Feb 10
New
Feb 17
First Quarter

Hourly Weather History & Observations

Time (CST) Temp. Dew Point Humidity Pressure Visibility Wind Dir Wind Speed Gust Speed Precip Events Conditions
12:53 AM 52.0 °F 45.0 °F 77% 30.21 in - Calm Calm - N/A   Unknown
1:53 AM 52.0 °F 44.1 °F 74% 30.22 in - Calm Calm - N/A   Unknown
2:53 AM 52.0 °F 44.1 °F 74% 30.22 in - Calm Calm - N/A   Unknown
3:53 AM 52.0 °F 44.1 °F 74% 30.23 in - Calm Calm - N/A   Unknown
4:53 AM 51.1 °F 44.1 °F 77% 30.25 in - Calm Calm - N/A   Unknown
5:53 AM 51.1 °F 44.1 °F 77% 30.26 in - Calm Calm - N/A   Unknown
6:53 AM 53.1 °F 44.1 °F 71% 30.28 in - Calm Calm - N/A   Unknown
7:53 AM 51.1 °F 44.1 °F 77% 30.30 in - Calm Calm - N/A   Unknown
8:53 AM 62.1 °F 46.9 °F 58% 30.32 in - Variable 5.8 mph - N/A   Unknown
9:53 AM 64.9 °F 46.9 °F 52% 30.34 in - Variable 3.5 mph - N/A   Unknown
10:53 AM 69.1 °F 46.9 °F 45% 30.34 in - Variable 4.6 mph - N/A   Unknown
11:53 AM 78.1 °F 46.9 °F 33% 30.32 in - Variable 3.5 mph - N/A   Unknown
12:53 PM 82.0 °F 48.0 °F 30% 30.28 in - SE 5.8 mph - N/A   Unknown
1:53 PM 81.0 °F 46.0 °F 29% 30.26 in - SSE 6.9 mph - N/A   Unknown
2:53 PM 79.0 °F 48.0 °F 34% 30.27 in - Variable 3.5 mph - N/A   Unknown
3:53 PM 75.0 °F 46.0 °F 36% 30.27 in - Variable 3.5 mph - N/A   Unknown
4:53 PM 69.1 °F 52.0 °F 54% 30.29 in - Calm Calm - N/A   Unknown
5:53 PM 62.1 °F 52.0 °F 70% 30.29 in - Calm Calm - N/A   Unknown
6:53 PM 59.0 °F 51.1 °F 75% 30.30 in - Calm Calm - N/A   Unknown
7:53 PM 66.9 °F 51.1 °F 57% 30.31 in - SE 3.5 mph - N/A   Unknown
8:53 PM 66.0 °F 50.0 °F 56% 30.32 in - SE 3.5 mph - N/A   Unknown
9:53 PM 57.9 °F 50.0 °F 75% 30.33 in - ESE 3.5 mph - N/A   Unknown
10:53 PM 55.9 °F 48.9 °F 77% 30.34 in - ESE 3.5 mph - N/A   Unknown
11:53 PM 60.1 °F 48.0 °F 64% 30.32 in - ESE 4.6 mph - N/A   Unknown